Tracking 28052 objects as of 22-Sep-2023
HD Live streaming from Space Station
objects crossing your sky now

DELTA 1 DEB

Track DELTA 1 DEB now!
10-day predictions


NORAD ID: 20012
Int'l Code: 1976-077FM
Perigee: 1,262.1 km
Apogee: 1,359.6 km
Inclination: 102.0 °
Period: 111.7 minutes
Semi major axis: 7681 km
RCS: 0.0142 m2 (small)
Launch date: July 29, 1976
Source: United States (US)
Launch site: AIR FORCE WESTERN TEST RANGE (AFWTR)

Note: This is SATELLITE DEBRIS
Your satellite tracking list
Your tracking list is empty




NASA's NSSDC Master Catalog

Two Line Element Set (TLE):
1 20012U 76077FM  23264.38690750  .00001664  00000-0  65528-2 0  9992
2 20012 102.0213 229.4695 0063512 236.8053 278.9491 12.89451906461902
Source of the keplerian elements: AFSPC